• In Hungary
  • List of Countries
  • For 7 days
  • Water Temperature
  • Satellite Maps
  • Weather Map
  • News
  • Weather Widgets
  • user-avatar
    Login

    Hourly Weather Mogilno

    Today, 20 January, Saturday

    Time Temperature Precipitation Wind Pressure Humidity
    00:00 -2°C° 0 mm 1 mps 709 mmHg 86%
    01:00 -2°C° 0 mm 1 mps 709 mmHg 87%
    02:00 -2°C° 0 mm 1 mps 709 mmHg 87%
    03:00 -2°C° 0 mm 1 mps 709 mmHg 87%
    04:00 -3°C° 0 mm 1 mps 708 mmHg 88%
    05:00 -3°C° 0 mm 1 mps 709 mmHg 88%
    06:00 -3°C° 0 mm 1 mps 709 mmHg 87%
    07:00 -3°C° 0 mm 1 mps 709 mmHg 87%
    08:00 -2°C° 0 mm 1 mps 709 mmHg 83%
    09:00 -1°C° 0 mm 1 mps 709 mmHg 78%
    10:00 0°C° 0 mm 1 mps 709 mmHg 74%
    11:00 0°C° 0 mm 1 mps 709 mmHg 72%
    12:00 -1°C° 0 mm 2 mps 709 mmHg 70%
    13:00 -1°C° 0 mm 2 mps 709 mmHg 69%
    14:00 -1°C° 0 mm 2 mps 708 mmHg 73%
    15:00 0°C° 0 mm 1 mps 708 mmHg 77%
    16:00 -1°C° 0 mm 1 mps 707 mmHg 81%
    17:00 -1°C° 0 mm 1 mps 707 mmHg 84%
    18:00 -1°C° 0 mm 1 mps 707 mmHg 87%
    19:00 -4°C° 0 mm 2 mps 707 mmHg 89%
    20:00 -4°C° 0 mm 2 mps 707 mmHg 89%
    21:00 -4°C° 0 mm 2 mps 706 mmHg 90%
    22:00 -2°C° 0 mm 1 mps 706 mmHg 90%
    23:00 -4°C° 0 mm 2 mps 706 mmHg 90%

    Tomorrow, 21 January, Sunday

    Time Temperature Precipitation Wind Pressure Humidity
    00:00 -4°C° 0 mm 2 mps 706 mmHg 90%
    01:00 -5°C° 0 mm 2 mps 706 mmHg 89%
    02:00 -4°C° 0.1 mm 2 mps 706 mmHg 89%
    03:00 -4°C° 0.1 mm 2 mps 706 mmHg 89%
    04:00 -4°C° 0.1 mm 2 mps 705 mmHg 89%
    05:00 -4°C° 0.1 mm 2 mps 705 mmHg 89%
    06:00 -4°C° 0.1 mm 2 mps 705 mmHg 90%
    07:00 -4°C° 0.1 mm 2 mps 705 mmHg 90%
    08:00 -3°C° 0.1 mm 2 mps 705 mmHg 87%
    09:00 -3°C° 0.1 mm 2 mps 706 mmHg 84%
    10:00 -2°C° 0.1 mm 3 mps 706 mmHg 81%
    11:00 -2°C° 0.2 mm 2 mps 706 mmHg 81%
    12:00 -2°C° 0.2 mm 2 mps 706 mmHg 80%
    13:00 -2°C° 0.2 mm 2 mps 706 mmHg 80%
    14:00 -2°C° 0.3 mm 2 mps 706 mmHg 84%
    15:00 -2°C° 0.3 mm 2 mps 707 mmHg 87%
    16:00 -1°C° 0.3 mm 1 mps 707 mmHg 91%
    17:00 -3°C° 0.3 mm 2 mps 707 mmHg 93%
    18:00 -3°C° 0.3 mm 2 mps 708 mmHg 95%
    19:00 -3°C° 0.3 mm 2 mps 708 mmHg 96%
    20:00 -3°C° 0.5 mm 2 mps 709 mmHg 96%
    21:00 -4°C° 0.5 mm 3 mps 709 mmHg 96%
    22:00 -4°C° 0.5 mm 3 mps 710 mmHg 95%
    23:00 -5°C° 0.4 mm 3 mps 710 mmHg 95%

    Day after tomorrow, 22 January, Monday

    Time Temperature Precipitation Wind Pressure Humidity
    00:00 -5°C° 0.4 mm 3 mps 710 mmHg 95%
    01:00 -5°C° 0.4 mm 3 mps 711 mmHg 95%
    02:00 -5°C° 0.3 mm 3 mps 711 mmHg 94%
    03:00 -5°C° 0.3 mm 3 mps 711 mmHg 94%
    04:00 -6°C° 0.3 mm 3 mps 711 mmHg 94%
    05:00 -6°C° 0.1 mm 3 mps 711 mmHg 94%
    06:00 -6°C° 0.1 mm 3 mps 711 mmHg 94%
    07:00 -6°C° 0.1 mm 3 mps 711 mmHg 94%
    08:00 -6°C° 0 mm 3 mps 712 mmHg 92%
    09:00 -6°C° 0 mm 3 mps 712 mmHg 91%
    10:00 -4°C° 0 mm 2 mps 712 mmHg 89%
    11:00 -4°C° 0.1 mm 2 mps 712 mmHg 87%
    12:00 -4°C° 0.1 mm 2 mps 712 mmHg 86%
    13:00 -3°C° 0.1 mm 2 mps 712 mmHg 84%
    14:00 -4°C° 0 mm 2 mps 712 mmHg 86%
    15:00 -4°C° 0 mm 2 mps 713 mmHg 88%
    16:00 -5°C° 0 mm 2 mps 713 mmHg 89%
    17:00 -5°C° 0 mm 2 mps 713 mmHg 91%
    18:00 -5°C° 0 mm 2 mps 714 mmHg 93%
    19:00 -4°C° 0 mm 1 mps 714 mmHg 94%
    20:00 -4°C° 0 mm 1 mps 714 mmHg 94%
    21:00 -4°C° 0 mm 1 mps 714 mmHg 94%
    22:00 -6°C° 0 mm 1 mps 715 mmHg 94%
    23:00 -6°C° 0 mm 1 mps 715 mmHg 93%

    23 January, Tuesday

    Time Temperature Precipitation Wind Pressure Humidity
    00:00 -6°C° 0 mm 1 mps 715 mmHg 92%
    01:00 -6°C° 0 mm 1 mps 715 mmHg 92%
    02:00 -6°C° 0 mm 1 mps 715 mmHg 92%
    03:00 -6°C° 0 mm 1 mps 715 mmHg 92%
    04:00 -7°C° 0 mm 1 mps 716 mmHg 92%
    05:00 -7°C° 0 mm 1 mps 716 mmHg 91%
    06:00 -7°C° 0 mm 1 mps 716 mmHg 91%
    07:00 -7°C° 0 mm 1 mps 717 mmHg 90%
    08:00 -6°C° 0 mm 1 mps 717 mmHg 87%
    09:00 -4°C° 0 mm 1 mps 718 mmHg 84%
    10:00 -2°C° 0 mm 1 mps 719 mmHg 80%
    11:00 -2°C° 0 mm 1 mps 719 mmHg 78%
    12:00 -1°C° 0 mm 1 mps 719 mmHg 76%
    13:00 0°C° 0 mm 1 mps 720 mmHg 74%
    14:00 -1°C° 0 mm 1 mps 720 mmHg 79%
    15:00 -2°C° 0 mm 1 mps 720 mmHg 83%
    16:00 -3°C° 0 mm 1 mps 720 mmHg 87%
    17:00 -4°C° 0 mm 1 mps 721 mmHg 88%
    18:00 -4°C° 0 mm 1 mps 721 mmHg 89%
    19:00 -6°C° 0 mm 1 mps 722 mmHg 90%
    20:00 -6°C° 0 mm 1 mps 722 mmHg 89%
    21:00 -6°C° 0 mm 1 mps 722 mmHg 88%
    22:00 -6°C° 0 mm 1 mps 722 mmHg 87%
    23:00 -6°C° 0 mm 1 mps 722 mmHg 87%

    24 January, Wednesday

    Time Temperature Precipitation Wind Pressure Humidity
    00:00 -6°C° 0 mm 1 mps 722 mmHg 86%
    01:00 -6°C° 0 mm 1 mps 723 mmHg 86%
    02:00 -6°C° 0 mm 1 mps 723 mmHg 86%
    03:00 -6°C° 0 mm 1 mps 723 mmHg 85%
    04:00 -6°C° 0 mm 1 mps 723 mmHg 85%
    05:00 -7°C° 0 mm 2 mps 723 mmHg 86%
    06:00 -7°C° 0 mm 2 mps 723 mmHg 86%
    07:00 -7°C° 0 mm 2 mps 723 mmHg 86%
    08:00 -6°C° 0 mm 2 mps 723 mmHg 84%
    09:00 -5°C° 0 mm 2 mps 724 mmHg 82%
    10:00 -3°C° 0 mm 2 mps 724 mmHg 80%
    11:00 -3°C° 0 mm 2 mps 724 mmHg 81%
    12:00 -2°C° 0 mm 2 mps 724 mmHg 81%
    13:00 -1°C° 0 mm 3 mps 724 mmHg 82%
    14:00 -2°C° 0 mm 2 mps 723 mmHg 83%
    15:00 -2°C° 0 mm 2 mps 723 mmHg 85%
    16:00 -3°C° 0 mm 2 mps 723 mmHg 87%
    17:00 -4°C° 0 mm 2 mps 723 mmHg 88%
    18:00 -5°C° 0 mm 3 mps 723 mmHg 88%
    19:00 -6°C° 0 mm 3 mps 723 mmHg 89%
    20:00 -6°C° 0 mm 3 mps 723 mmHg 89%
    21:00 -6°C° 0 mm 3 mps 723 mmHg 89%
    22:00 -6°C° 0 mm 3 mps 723 mmHg 89%
    23:00 -6°C° 0 mm 3 mps 723 mmHg 89%

    25 January, Thursday

    Time Temperature Precipitation Wind Pressure Humidity
    00:00 -6°C° 0 mm 3 mps 723 mmHg 89%
    01:00 -6°C° 0 mm 3 mps 722 mmHg 89%
    02:00 -6°C° 0 mm 3 mps 722 mmHg 89%
    03:00 -6°C° 0 mm 3 mps 722 mmHg 89%
    04:00 -6°C° 0 mm 3 mps 721 mmHg 89%
    05:00 -6°C° 0 mm 3 mps 721 mmHg 89%
    06:00 -6°C° 0 mm 3 mps 721 mmHg 89%
    07:00 -6°C° 0 mm 3 mps 721 mmHg 89%
    08:00 -5°C° 0 mm 3 mps 721 mmHg 87%
    09:00 -4°C° 0 mm 3 mps 721 mmHg 85%
    10:00 -2°C° 0 mm 3 mps 721 mmHg 83%
    11:00 -1°C° 0 mm 3 mps 721 mmHg 83%
    12:00 -1°C° 0 mm 3 mps 720 mmHg 83%
    13:00 0°C° 0 mm 3 mps 720 mmHg 83%
    14:00 0°C° 0 mm 3 mps 720 mmHg 84%
    15:00 -1°C° 0 mm 3 mps 719 mmHg 85%
    16:00 -2°C° 0 mm 3 mps 719 mmHg 86%
    17:00 -2°C° 0 mm 3 mps 719 mmHg 86%
    18:00 -4°C° 0 mm 3 mps 719 mmHg 86%
    19:00 -4°C° 0 mm 3 mps 718 mmHg 86%
    20:00 -4°C° 0 mm 3 mps 718 mmHg 84%
    21:00 -4°C° 0 mm 3 mps 718 mmHg 83%
    22:00 -5°C° 0 mm 3 mps 718 mmHg 82%
    23:00 -5°C° 0 mm 3 mps 718 mmHg 81%
    Show more